TimeEDT,TemperatureF,Dew PointF,Humidity,Sea Level PressureIn,VisibilityMPH,Wind Direction,Wind SpeedMPH,Gust SpeedMPH,PrecipitationIn,Events,Conditions,WindDirDegrees,DateUTC
12:52 AM,62.1,60.1,93,30.22,10.0,Calm,Calm,-,N/A,,Clear,0,2013-07-17 04:52:00
1:52 AM,59.0,57.0,93,30.21,9.0,Calm,Calm,-,N/A,,Clear,0,2013-07-17 05:52:00
2:52 AM,57.9,57.0,97,30.20,9.0,Calm,Calm,-,N/A,,Clear,0,2013-07-17 06:52:00
3:52 AM,55.9,55.0,97,30.21,8.0,Calm,Calm,-,N/A,,Clear,0,2013-07-17 07:52:00
4:06 AM,57.2,55.4,94,30.22,10.0,Calm,Calm,-,N/A,,Partly Cloudy,0,2013-07-17 08:06:00
4:52 AM,55.9,55.0,97,30.22,8.0,Calm,Calm,-,N/A,,Clear,0,2013-07-17 08:52:00
5:05 AM,57.2,55.4,94,30.23,8.0,Calm,Calm,-,N/A,,Partly Cloudy,0,2013-07-17 09:05:00
5:49 AM,55.4,55.4,100,30.22,9.0,Calm,Calm,-,N/A,,Mostly Cloudy,0,2013-07-17 09:49:00
5:52 AM,57.0,55.0,93,30.21,8.0,Calm,Calm,-,N/A,,Overcast,0,2013-07-17 09:52:00
5:56 AM,57.2,55.4,94,30.22,1.5,Calm,Calm,-,N/A,,Overcast,0,2013-07-17 09:56:00
5:58 AM,57.2,55.4,94,30.22,0.5,Calm,Calm,-,N/A,Fog,Fog,0,2013-07-17 09:58:00
6:06 AM,57.2,57.2,100,30.22,0.2,Calm,Calm,-,N/A,Fog,Fog,0,2013-07-17 10:06:00
6:24 AM,59.0,57.2,94,30.22,1.0,Calm,Calm,-,N/A,,Mist,0,2013-07-17 10:24:00
6:29 AM,59.0,59.0,100,30.22,2.0,Calm,Calm,-,N/A,,Mostly Cloudy,0,2013-07-17 10:29:00
6:36 AM,59.0,59.0,100,30.22,4.0,Calm,Calm,-,N/A,,Scattered Clouds,0,2013-07-17 10:36:00
6:52 AM,61.0,60.1,97,30.21,8.0,Calm,Calm,-,N/A,,Clear,0,2013-07-17 10:52:00
7:52 AM,66.0,63.0,90,30.21,9.0,Calm,Calm,-,0.00,Rain,Light Rain,0,2013-07-17 11:52:00
8:52 AM,71.1,64.9,81,30.19,10.0,Calm,Calm,-,0.00,,Partly Cloudy,0,2013-07-17 12:52:00
9:52 AM,77.0,66.0,69,30.18,10.0,Calm,Calm,-,N/A,,Partly Cloudy,0,2013-07-17 13:52:00
10:52 AM,82.9,66.9,58,30.16,10.0,Calm,Calm,-,N/A,,Clear,0,2013-07-17 14:52:00
11:52 AM,88.0,68.0,51,30.14,10.0,Variable,6.9,-,N/A,,Clear,0,2013-07-17 15:52:00
12:52 PM,89.1,66.9,48,30.12,10.0,Variable,5.8,-,N/A,,Partly Cloudy,0,2013-07-17 16:52:00
1:52 PM,88.0,66.9,49,30.10,10.0,Variable,3.5,-,N/A,,Scattered Clouds,0,2013-07-17 17:52:00
2:52 PM,91.0,66.9,45,30.06,10.0,Variable,4.6,-,N/A,,Partly Cloudy,0,2013-07-17 18:52:00
3:52 PM,91.0,66.9,45,30.04,10.0,Variable,6.9,-,N/A,,Scattered Clouds,0,2013-07-17 19:52:00
4:52 PM,89.1,66.9,48,30.01,10.0,Variable,6.9,-,N/A,,Mostly Cloudy,0,2013-07-17 20:52:00
5:52 PM,89.1,68.0,50,29.99,10.0,Variable,3.5,-,N/A,,Clear,0,2013-07-17 21:52:00
6:52 PM,84.9,68.0,57,29.99,10.0,Calm,Calm,-,N/A,,Clear,0,2013-07-17 22:52:00
7:52 PM,78.1,72.0,81,29.99,10.0,Calm,Calm,-,N/A,,Clear,0,2013-07-17 23:52:00
8:07 PM,80.6,71.6,74,30.05,9.0,NNW,9.2,-,0.00,Rain-Thunderstorm,Light Thunderstorms and Rain,340,2013-07-18 00:07:00
8:15 PM,71.6,68.0,88,30.06,3.0,NNW,19.6,40.3,0.05,Rain-Thunderstorm,Heavy Thunderstorms and Rain,340,2013-07-18 00:15:00
8:52 PM,71.1,68.0,90,30.02,6.0,SE,5.8,-,0.17,Rain-Thunderstorm,Thunderstorms and Rain,130,2013-07-18 00:52:00
9:12 PM,69.8,68.0,94,30.04,10.0,ESE,8.1,-,0.00,,Scattered Clouds,120,2013-07-18 01:12:00
9:52 PM,70.0,69.1,97,30.01,10.0,ESE,3.5,-,0.00,,Scattered Clouds,110,2013-07-18 01:52:00
10:52 PM,70.0,69.1,97,30.01,10.0,WSW,3.5,-,N/A,,Mostly Cloudy,240,2013-07-18 02:52:00
11:16 PM,69.8,69.8,100,30.04,2.0,Calm,Calm,-,0.09,Rain,Rain,0,2013-07-18 03:16:00
11:20 PM,69.8,69.8,100,30.04,1.2,Calm,Calm,-,0.14,Rain,Heavy Rain,0,2013-07-18 03:20:00
11:27 PM,69.8,69.8,100,30.04,2.0,NNE,3.5,-,0.16,Rain,Rain,30,2013-07-18 03:27:00
11:35 PM,69.8,69.8,100,30.04,8.0,Calm,Calm,-,0.16,Rain,Light Rain,0,2013-07-18 03:35:00
11:52 PM,70.0,69.1,97,30.00,10.0,Calm,Calm,-,0.16,,Overcast,0,2013-07-18 03:52:00